Regional Weather Roundup
Issued by NWS

Home | Current Version | Previous Version | Text Only | Print | Product List | Glossary Off
Versions: 1 2 3 4 5 6 7 8 9 10 11 12 13 14 15 16 17 18 19 20 21 22 23 24 25 26 27 28 29 30 31 32 33 34 35 36 37 38 39 40 41 42 43 44 45 46 47 48

000
ASUS45 KBOU 010907
RWRCO

WEATHER ROUNDUP FOR COLORADO
NATIONAL WEATHER SERVICE DENVER/BOULDER CO
200 AM MST SUN FEB 01 2015

NOTE: "FAIR" INDICATES FEW OR NO CLOUDS BELOW 12000 FEET WITH NO
SIGNIFICANT WEATHER AND/OR OBSTRUCTIONS TO VISIBILITY.

COZ001>005-013-030-031-011000-
...NORTHWEST COLORADO...

CITY           SKY/WX    TMP DP  RH WIND       PRES   REMARKS
CRAIG          CLEAR     20  15  81 SW6       30.09R WCI  12
HAYDEN         CLEAR     21  16  79 W14       30.05R WCI   8
MEEKER         CLEAR     19  15  84 E6        30.08R WCI  11
MOUNT WERNER   NOT AVBL
STEAMBOAT SPGS CLEAR     19  16  88 CALM      30.04R
WALDEN         CLOUDY    18  12  79 NW10      29.98R WCI   6
$$

COZ006>008-011-011000-
...WEST CENTRAL VALLEYS...

CITY           SKY/WX    TMP DP  RH WIND       PRES   REMARKS
GRAND JUNCTION CLOUDY    32  32 100 E5        30.08R WCI  27
MONTROSE       CLEAR     31  29  92 S5        30.08S WCI  26
EAGLE          PTCLDY    25  21  86 E12       30.06R WCI  14
RIFLE          CLEAR     27  24  89 SW5       30.08R WCI  22
DELTA          CLOUDY    37  36  97 E3        30.08R
NUCLA          CLEAR     30  28  93 SE6       30.11R WCI  24
$$

COZ017>023-064>068-011000-
...SOUTHWEST COLORADO...

CITY           SKY/WX    TMP DP  RH WIND       PRES   REMARKS
DURANGO        FOG       31  31 100 CALM      29.98S VSB 1/4
CORTEZ         CLEAR     30  27  88 CALM      30.02R
PAGOSA SPRINGS LGT SNOW  32  32 100 CALM      29.99R
TELLURIDE      PTCLDY    20  17  86 SE6       30.08R WCI  13
WOLF CREEK PAS PTCLDY    18  -4  38 N12G18    30.01S WCI   5
$$

COZ009-010-012-014-032>034-037-058>063-011000-
...CENTRAL COLORADO...

CITY           SKY/WX    TMP DP  RH WIND       PRES   REMARKS
ASPEN          PTCLDY    23  18  81 CALM      30.03R
BUENA VISTA    PTCLDY    23  12  63 NE5       29.93R WCI  17
COPPER MTN     CLOUDY    12   5  73 W29G49    29.90R HAZE    WCI  -9
BERTHOUD PASS  LGT SNOW   3  -2  78 NW32G44   29.85R WCI -22
COTTONWOOD PAS PTCLDY    27  10  50 W15G23    29.91R WCI  15
GUNNISON       PTCLDY    25  16  68 CALM      30.03R
KREMMLING      CLEAR     27  10  50 W9        30.02R WCI  17
LEADVILLE      CLOUDY    17   4  56 NW20G33   29.93R WCI   1
MONARCH PASS   CLOUDY    12   9  85 MISG      30.01S
SALIDA         PTCLDY    31  15  50 W12       30.01R WCI  22
SUNLIGHT       PTCLDY   N/A N/A N/A W9G20       N/A
WILKERSON PASS PTCLDY    12   1  62 NW13G31   29.91R WCI  -3
$$

COZ069>075-011000-
...SAN LUIS VALLEY/SANGRE DE CRISTO MOUNTAINS...

CITY           SKY/WX    TMP DP  RH WIND       PRES   REMARKS
ALAMOSA        CLOUDY    27  26  96 SW3       29.96R
LA VETA PASS   PTCLDY    19  18  93 MISG      29.92S
SAGUACHE       CLEAR     19  12  73 CALM      29.97R
$$

COZ035-036-038>040-011000-
...NORTHERN COLORADO FRONT RANGE...

CITY           SKY/WX    TMP DP  RH WIND       PRES   REMARKS
DENVER INTL AP LGT SNOW  25  21  85 N20G28    30.03R FOG     WCI  11
DMNS CITY PARK   N/A     25  25  99 NE7G15    30.04R WCI  17
AURORA         LGT SNOW  25  25 100 N17       30.03R VSB 3/4 WCI  12
FRONT RANGE AP NOT AVBL
ERIE MUNI ARPT FLURRIES  28  22  77 N3        30.04R
BOULDER MUN AP LGT SNOW  28  28 100 E3        30.03R
CENTENNIAL     SNOW      26  25  96 N12       30.01R VSB 1/2 WCI  16
BROOMFIELD     LGT SNOW  27  27 100 NE7       30.03R VSB 3/4 WCI  19
FORT COLLINS   PTCLDY    27  18  69 NE15      30.02R WCI  15
LONGMONT       CLOUDY    30  22  72 E7        30.05R WCI  23
$$

COZ041-046-047-076>085-087-088-011000-
...PIKES PEAK/PALMER DIVIDE AND SOUTHERN FOOTHILLS...

CITY           SKY/WX    TMP DP  RH WIND       PRES   REMARKS
COLO. SPRINGS  PTCLDY    28  22  78 N17       29.97R WCI  16
A. F. ACADEMY  LGT SNOW  27  23  86 N16       29.96R FOG     WCI  14
ELLICOTT       PTCLDY   N/A N/A N/A N16       29.93R
FALCON         LGT SNOW  25  22  87 N16G25    29.95R WCI  13
FORT CARSON    CLEAR     29  23  81 N21       29.94R WCI  15
LIMON          LGT SNOW  25  23  92 N21       29.98R FOG     WCI  11
MONUMENT HILL  LGT SNOW  23  23 100 NW15      29.95R WCI  10
TRINIDAD       LGT SNOW  35  32  88 N14       29.93R FOG     WCI  26
$$

COZ042>045-048>051-090-091-011000-
...NORTHEAST COLORADO...

CITY           SKY/WX    TMP DP  RH WIND       PRES   REMARKS
GREELEY ARPT   PTCLDY    27  16  63 N13       30.02S WCI  16
AKRON          CLOUDY    22  21  96 N23       30.01R WCI   6
BURLINGTON     CLOUDY    24  20  84 N29G36    29.96R WCI   7
WRAY           CLOUDY    22  19  88 N18G28    30.03R WCI   8
STERLING       CLOUDY    27  23  86 N15       30.04R WCI  15
HOLYOKE        NOT AVBL
FORT MORGAN    CLOUDY    27  21  78 N16       30.04R WCI  15
$$

COZ086-089-092>099-011000-
...SOUTHEAST COLORADO...

CITY           SKY/WX    TMP DP  RH WIND       PRES   REMARKS
PUEBLO         CLOUDY    34  29  82 NE10      29.96R WCI  26
LA JUNTA       CLOUDY    36  30  79 N15       29.96R
LAMAR          CLOUDY    35  31  85 N17       29.95R WCI  25
SPRINGFIELD      N/A     35  32  88 N21       29.90R WCI  24
$$


USA.gov is the U.S. government's official web portal to all federal, state and local government web resources and services.